ASTRA 2F

Last updated on Thu Jul 03 2025 00:02:46 GMT+0000 (Coordinated Universal Time)

1 38778U 12051A 25183.57222552 .00000157 00000+0 00000+0 0 9992 2 38778 0.0717 253.6641 0001768 277.3993 343.9631 1.00269432 37634
UTC large
Height (km)
Speed (km/s)
/
Latitude / Longitude
Inclination (degrees)
Orbital Period (minutes)
Azimuth
Elevation
Range (km)
Doppler Factor

Next 0 passes for location: London (51.5072 / 0.1276)

Sorry there are no passes over London.